This is the latest recevied weather packets stored in our database for station/object KC0AFB. If no packets are shown the sender has not sent any weather packets the latest 1 day(s).
| Time | Temp. | Humidity | Pressure | Rain* | Wind** | Luminosity | Snow |
|---|---|---|---|---|---|---|---|
| 1777995574 | 4.44° C | 54% | 1014.4 hPa | 0 mm | 4.92 m/s, 0° | 213 W/m² | - |
| 1777995271 | 3.89° C | 54% | 1014.3 hPa | 0 mm | 3.13 m/s, 332° | 236 W/m² | - |
| 1777994962 | 3.89° C | 54% | 1014.3 hPa | 0 mm | 4.02 m/s, 300° | 177 W/m² | - |
| 1777994660 | 4.44° C | 52% | 1014.3 hPa | 0 mm | 6.26 m/s, 348° | 154 W/m² | - |
| 1777994359 | 3.89° C | 57% | 1014.2 hPa | 0 mm | 3.13 m/s, 312° | 216 W/m² | - |
| 1777994050 | 3.89° C | 58% | 1014.2 hPa | 0 mm | 3.58 m/s, 315° | 151 W/m² | - |
| 1777993748 | 4.44° C | 56% | 1014.3 hPa | 0 mm | 3.13 m/s, 306° | 183 W/m² | - |
| 1777993444 | 4.44° C | 59% | 1014.3 hPa | 0 mm | 4.02 m/s, 306° | 354 W/m² | - |
| 1777993139 | 3.89° C | 60% | 1014.5 hPa | 0 mm | 2.68 m/s, 272° | 274 W/m² | - |
| 1777992837 | 3.89° C | 60% | 1014.4 hPa | 0 mm | 3.13 m/s, 298° | 220 W/m² | - |
| 1777992534 | 3.89° C | 60% | 1014.5 hPa | 0 mm | 4.47 m/s, 325° | 233 W/m² | - |
| 1777992233 | 3.89° C | 61% | 1014.3 hPa | 0 mm | 3.58 m/s, 332° | 219 W/m² | - |
| 1777991929 | 3.33° C | 61% | 1014.1 hPa | 0 mm | 4.92 m/s, 339° | 191 W/m² | - |
| 1777991627 | 3.89° C | 60% | 1014.1 hPa | 0 mm | 4.02 m/s, 339° | 175 W/m² | - |
| 1777991324 | 3.89° C | 61% | 1014.2 hPa | 0 mm | 3.13 m/s, 323° | 193 W/m² | - |
| 1777991022 | 3.33° C | 61% | 1014.1 hPa | 0 mm | 3.58 m/s, 284° | 213 W/m² | - |
| 1777990719 | 3.89° C | 61% | 1014.1 hPa | 0 mm | 4.92 m/s, 338° | 172 W/m² | - |
| 1777990416 | 3.89° C | 61% | 1014.2 hPa | 0 mm | 4.02 m/s, 345° | 154 W/m² | - |
| 1777990112 | 4.44° C | 60% | 1014 hPa | 0 mm | 3.13 m/s, 342° | 222 W/m² | - |
| 1777989809 | 3.89° C | 61% | 1013.9 hPa | 0 mm | 5.36 m/s, 321° | 235 W/m² | - |
| 1777989506 | 3.33° C | 61% | 1014 hPa | 0 mm | 3.13 m/s, 281° | 201 W/m² | - |
| 1777989202 | 3.33° C | 60% | 1013.9 hPa | 0 mm | 4.47 m/s, 280° | 196 W/m² | - |
| 1777988898 | 3.33° C | 61% | 1013.7 hPa | 0 mm | 4.47 m/s, 317° | 175 W/m² | - |
| 1777988596 | 3.33° C | 62% | 1013.8 hPa | 0 mm | 4.02 m/s, 353° | 187 W/m² | - |
| 1777988292 | 3.33° C | 62% | 1013.8 hPa | 0 mm | 3.58 m/s, 300° | 161 W/m² | - |
* Rain latest hour (hover to see other rain measurements)
** Current wind speed in m/s (hover to see current wind gust speed)